Time,TemperatureF,DewpointF,PressureIn,WindDirection,WindDirectionDegrees,WindSpeedMPH,WindSpeedGustMPH,Humidity,HourlyPrecipIn,Conditions,Clouds,dailyrainin,SoftwareType,DateUTC
2013-01-05 00:00:00,23.3,21.1,30.41,WSW,258,0.0,0.0,91,0.00,,,0.00,WeatherCatV1.10B1784,2013-01-05 06:00:00,
2013-01-05 00:05:00,23.4,21.2,30.40,WSW,258,0.0,0.0,91,0.00,,,0.00,WeatherCatV1.10B1784,2013-01-05 06:05:00,
2013-01-05 00:10:00,23.5,21.3,30.40,WSW,258,0.0,0.0,91,0.00,,,0.00,WeatherCatV1.10B1784,2013-01-05 06:10:00,
2013-01-05 00:15:00,23.4,21.2,30.40,WSW,258,0.0,0.0,91,0.00,,,0.00,WeatherCatV1.10B1784,2013-01-05 06:15:00,
2013-01-05 00:20:00,23.4,20.9,30.40,WSW,258,0.0,0.0,90,0.00,,,0.00,WeatherCatV1.10B1784,2013-01-05 06:20:00,
2013-01-05 00:25:00,23.4,20.9,30.40,WSW,258,0.0,0.0,90,0.00,,,0.00,WeatherCatV1.10B1784,2013-01-05 06:25:00,
2013-01-05 00:30:00,23.3,21.1,30.40,WSW,258,0.0,0.0,91,0.00,,,0.00,WeatherCatV1.10B1784,2013-01-05 06:30:00,
2013-01-05 00:35:00,23.3,20.8,30.39,WSW,258,0.0,0.0,90,0.00,,,0.00,WeatherCatV1.10B1784,2013-01-05 06:35:00,
2013-01-05 00:40:00,23.2,21.0,30.39,WSW,258,0.0,0.0,91,0.00,,,0.00,WeatherCatV1.10B1784,2013-01-05 06:40:00,
2013-01-05 00:45:00,23.2,20.7,30.39,WSW,258,0.0,0.0,90,0.00,,,0.00,WeatherCatV1.10B1784,2013-01-05 06:45:00,
2013-01-05 00:50:00,23.1,20.6,30.39,WSW,258,0.0,0.0,90,0.00,,,0.00,WeatherCatV1.10B1784,2013-01-05 06:50:00,
2013-01-05 00:55:00,23.0,20.5,30.39,WSW,258,0.0,0.0,90,0.00,,,0.00,WeatherCatV1.10B1784,2013-01-05 06:55:00,
2013-01-05 01:00:00,22.9,20.7,30.38,WSW,258,0.0,0.0,91,0.00,,,0.00,WeatherCatV1.10B1784,2013-01-05 07:00:00,
2013-01-05 01:05:00,22.8,20.3,30.38,WSW,258,0.0,0.0,90,0.00,,,0.00,WeatherCatV1.10B1784,2013-01-05 07:05:00,
2013-01-05 01:10:00,22.7,20.2,30.38,WSW,258,0.0,0.0,90,0.00,,,0.00,WeatherCatV1.10B1784,2013-01-05 07:10:00,
2013-01-05 01:15:00,22.6,20.1,30.38,WSW,258,0.0,0.0,90,0.00,,,0.00,WeatherCatV1.10B1784,2013-01-05 07:15:00,
2013-01-05 01:20:00,22.5,20.3,30.38,WSW,258,0.0,0.0,91,0.00,,,0.00,WeatherCatV1.10B1784,2013-01-05 07:20:00,
2013-01-05 01:25:00,22.4,20.2,30.38,WSW,258,0.0,0.0,91,0.00,,,0.00,WeatherCatV1.10B1784,2013-01-05 07:25:00,
2013-01-05 01:30:00,22.4,20.2,30.38,WSW,258,0.0,0.0,91,0.00,,,0.00,WeatherCatV1.10B1784,2013-01-05 07:30:00,
2013-01-05 01:35:00,22.4,20.2,30.38,WSW,258,0.0,0.0,91,0.00,,,0.00,WeatherCatV1.10B1784,2013-01-05 07:35:00,
2013-01-05 01:40:00,22.3,20.3,30.38,WSW,258,0.0,0.0,92,0.00,,,0.00,WeatherCatV1.10B1784,2013-01-05 07:40:00,
2013-01-05 01:45:00,22.2,20.0,30.39,WSW,258,0.0,0.0,91,0.00,,,0.00,WeatherCatV1.10B1784,2013-01-05 07:45:00,
2013-01-05 01:50:00,22.2,20.0,30.38,WSW,258,0.0,0.0,91,0.00,,,0.00,WeatherCatV1.10B1784,2013-01-05 07:50:00,
2013-01-05 01:55:00,22.1,19.9,30.38,WSW,258,0.0,0.0,91,0.00,,,0.00,WeatherCatV1.10B1784,2013-01-05 07:55:00,
2013-01-05 02:00:00,22.0,19.8,30.38,WSW,258,0.0,0.0,91,0.00,,,0.00,WeatherCatV1.10B1784,2013-01-05 08:00:00,
2013-01-05 02:05:00,22.0,20.0,30.38,WSW,258,0.0,0.0,92,0.00,,,0.00,WeatherCatV1.10B1784,2013-01-05 08:05:00,
2013-01-05 02:10:00,21.9,19.9,30.38,WSW,258,0.0,0.0,92,0.00,,,0.00,WeatherCatV1.10B1784,2013-01-05 08:10:00,
2013-01-05 02:15:00,21.9,19.9,30.39,WSW,258,0.0,0.0,92,0.00,,,0.00,WeatherCatV1.10B1784,2013-01-05 08:15:00,
2013-01-05 02:20:00,21.9,19.9,30.39,WSW,258,0.0,0.0,92,0.00,,,0.00,WeatherCatV1.10B1784,2013-01-05 08:20:00,
2013-01-05 02:25:00,22.0,20.0,30.39,WSW,258,0.0,0.0,92,0.00,,,0.00,WeatherCatV1.10B1784,2013-01-05 08:25:00,
2013-01-05 02:30:00,22.0,20.0,30.39,WSW,258,0.0,0.0,92,0.00,,,0.00,WeatherCatV1.10B1784,2013-01-05 08:30:00,
2013-01-05 02:35:00,22.0,20.0,30.39,WSW,258,0.0,0.0,92,0.00,,,0.00,WeatherCatV1.10B1784,2013-01-05 08:35:00,
2013-01-05 02:40:00,21.9,19.9,30.38,WSW,258,0.0,0.0,92,0.00,,,0.00,WeatherCatV1.10B1784,2013-01-05 08:40:00,
2013-01-05 02:45:00,21.9,19.9,30.38,WSW,258,0.0,0.0,92,0.00,,,0.00,WeatherCatV1.10B1784,2013-01-05 08:45:00,
2013-01-05 02:50:00,21.9,19.9,30.38,WSW,258,0.0,0.0,92,0.00,,,0.00,WeatherCatV1.10B1784,2013-01-05 08:50:00,
2013-01-05 02:55:00,22.0,20.3,30.38,WSW,258,0.0,0.0,93,0.00,,,0.00,WeatherCatV1.10B1784,2013-01-05 08:55:00,
2013-01-05 03:00:00,22.0,20.3,30.39,WSW,258,0.0,0.0,93,0.00,,,0.00,WeatherCatV1.10B1784,2013-01-05 09:00:00,
2013-01-05 03:05:00,22.1,20.4,30.38,WSW,258,0.0,0.0,93,0.00,,,0.00,WeatherCatV1.10B1784,2013-01-05 09:05:00,
2013-01-05 03:10:00,22.0,20.3,30.38,WSW,258,0.0,0.0,93,0.00,,,0.00,WeatherCatV1.10B1784,2013-01-05 09:10:00,
2013-01-05 03:15:00,22.1,20.4,30.38,WSW,258,0.0,0.0,93,0.00,,,0.00,WeatherCatV1.10B1784,2013-01-05 09:15:00,
2013-01-05 03:20:00,22.1,20.4,30.38,WSW,258,0.0,0.0,93,0.00,,,0.00,WeatherCatV1.10B1784,2013-01-05 09:20:00,
2013-01-05 03:25:00,22.1,20.4,30.38,WSW,258,0.0,0.0,93,0.00,,,0.00,WeatherCatV1.10B1784,2013-01-05 09:25:00,
2013-01-05 03:30:00,22.1,20.4,30.38,WSW,258,0.0,0.0,93,0.00,,,0.00,WeatherCatV1.10B1784,2013-01-05 09:30:00,
2013-01-05 03:35:00,22.1,20.4,30.38,WSW,258,0.0,0.0,93,0.00,,,0.00,WeatherCatV1.10B1784,2013-01-05 09:35:00,
2013-01-05 03:40:00,22.1,20.4,30.38,WSW,258,0.0,0.0,93,0.00,,,0.00,WeatherCatV1.10B1784,2013-01-05 09:40:00,
2013-01-05 03:45:00,22.2,20.5,30.38,WSW,258,0.0,0.0,93,0.00,,,0.00,WeatherCatV1.10B1784,2013-01-05 09:45:00,
2013-01-05 03:50:00,22.3,20.6,30.38,WSW,258,0.0,0.0,93,0.00,,,0.00,WeatherCatV1.10B1784,2013-01-05 09:50:00,
2013-01-05 03:55:00,22.4,20.7,30.38,WSW,258,0.0,0.0,93,0.00,,,0.00,WeatherCatV1.10B1784,2013-01-05 09:55:00,
2013-01-05 04:00:00,22.5,20.8,30.38,WSW,258,0.0,0.0,93,0.00,,,0.00,WeatherCatV1.10B1784,2013-01-05 10:00:00,
2013-01-05 04:05:00,22.6,20.9,30.38,WSW,258,0.0,0.0,93,0.00,,,0.00,WeatherCatV1.10B1784,2013-01-05 10:05:00,
2013-01-05 04:10:00,22.6,20.9,30.38,WSW,258,0.0,0.0,93,0.00,,,0.00,WeatherCatV1.10B1784,2013-01-05 10:10:00,
2013-01-05 04:15:00,22.7,21.2,30.38,WSW,258,0.0,0.0,94,0.00,,,0.00,WeatherCatV1.10B1784,2013-01-05 10:15:00,
2013-01-05 04:20:00,22.8,21.3,30.38,WSW,258,0.0,0.0,94,0.00,,,0.00,WeatherCatV1.10B1784,2013-01-05 10:20:00,
2013-01-05 04:25:00,22.9,21.4,30.37,WSW,258,0.0,0.0,94,0.00,,,0.00,WeatherCatV1.10B1784,2013-01-05 10:25:00,
2013-01-05 04:30:00,23.1,21.6,30.37,WSW,258,0.0,0.0,94,0.00,,,0.00,WeatherCatV1.10B1784,2013-01-05 10:30:00,
2013-01-05 04:35:00,23.3,21.8,30.38,WSW,258,0.0,0.0,94,0.00,,,0.00,WeatherCatV1.10B1784,2013-01-05 10:35:00,
2013-01-05 04:40:00,23.6,22.1,30.38,WSW,258,0.0,0.0,94,0.00,,,0.00,WeatherCatV1.10B1784,2013-01-05 10:40:00,
2013-01-05 04:45:00,23.8,22.6,30.38,WSW,258,0.0,0.0,95,0.00,,,0.00,WeatherCatV1.10B1784,2013-01-05 10:45:00,
2013-01-05 04:50:00,24.0,22.5,30.38,WSW,258,0.0,0.0,94,0.00,,,0.00,WeatherCatV1.10B1784,2013-01-05 10:50:00,
2013-01-05 04:55:00,24.1,22.6,30.38,WSW,258,0.0,0.0,94,0.00,,,0.00,WeatherCatV1.10B1784,2013-01-05 10:55:00,
2013-01-05 05:00:00,24.3,22.8,30.38,WSW,258,0.0,0.0,94,0.00,,,0.00,WeatherCatV1.10B1784,2013-01-05 11:00:00,
2013-01-05 05:05:00,24.4,22.9,30.38,WSW,258,0.0,0.0,94,0.00,,,0.00,WeatherCatV1.10B1784,2013-01-05 11:05:00,
2013-01-05 05:10:00,24.5,23.0,30.38,WSW,258,0.0,0.0,94,0.00,,,0.00,WeatherCatV1.10B1784,2013-01-05 11:10:00,
2013-01-05 05:15:00,24.8,23.3,30.38,WSW,258,0.0,0.0,94,0.00,,,0.00,WeatherCatV1.10B1784,2013-01-05 11:15:00,
2013-01-05 05:20:00,24.9,23.4,30.38,WSW,258,0.0,0.0,94,0.00,,,0.00,WeatherCatV1.10B1784,2013-01-05 11:20:00,
2013-01-05 05:25:00,25.1,23.9,30.38,WSW,258,0.0,0.0,95,0.00,,,0.00,WeatherCatV1.10B1784,2013-01-05 11:25:00,
2013-01-05 05:30:00,25.3,24.1,30.37,WSW,258,0.0,0.0,95,0.00,,,0.00,WeatherCatV1.10B1784,2013-01-05 11:30:00,
2013-01-05 05:35:00,25.5,24.3,30.38,WSW,258,0.0,0.0,95,0.00,,,0.00,WeatherCatV1.10B1784,2013-01-05 11:35:00,
2013-01-05 05:40:00,25.7,24.5,30.38,WSW,258,0.0,0.0,95,0.00,,,0.00,WeatherCatV1.10B1784,2013-01-05 11:40:00,
2013-01-05 05:45:00,25.8,24.6,30.38,WSW,258,0.0,0.0,95,0.00,,,0.00,WeatherCatV1.10B1784,2013-01-05 11:45:00,
2013-01-05 05:50:00,26.2,25.0,30.38,WSW,258,0.0,0.0,95,0.00,,,0.00,WeatherCatV1.10B1784,2013-01-05 11:50:00,
2013-01-05 05:55:00,26.4,25.2,30.38,WSW,258,0.0,0.0,95,0.00,,,0.00,WeatherCatV1.10B1784,2013-01-05 11:55:00,
2013-01-05 06:00:00,26.6,25.4,30.38,WSW,258,0.0,0.0,95,0.00,,,0.00,WeatherCatV1.10B1784,2013-01-05 12:00:00,
2013-01-05 06:05:00,26.8,25.6,30.39,SSE,147,0.0,0.0,95,0.00,,,0.00,WeatherCatV1.10B1784,2013-01-05 12:05:00,
2013-01-05 06:10:00,26.9,25.7,30.39,SSE,147,0.0,0.0,95,0.00,,,0.00,WeatherCatV1.10B1784,2013-01-05 12:10:00,
2013-01-05 06:15:00,27.1,25.9,30.39,SSE,147,0.0,0.0,95,0.00,,,0.00,WeatherCatV1.10B1784,2013-01-05 12:15:00,
2013-01-05 06:20:00,27.3,26.1,30.39,SSE,147,0.0,0.0,95,0.00,,,0.00,WeatherCatV1.10B1784,2013-01-05 12:20:00,
2013-01-05 06:25:00,27.6,26.4,30.38,SSE,147,0.0,0.0,95,0.00,,,0.00,WeatherCatV1.10B1784,2013-01-05 12:25:00,
2013-01-05 06:30:00,28.0,26.5,30.38,SSE,147,0.0,1.0,94,0.00,,,0.00,WeatherCatV1.10B1784,2013-01-05 12:30:00,
2013-01-05 06:35:00,28.1,26.3,30.38,SSE,147,0.0,0.0,93,0.00,,,0.00,WeatherCatV1.10B1784,2013-01-05 12:35:00,
2013-01-05 06:40:00,28.2,26.4,30.38,SSE,147,0.0,0.0,93,0.00,,,0.00,WeatherCatV1.10B1784,2013-01-05 12:40:00,
2013-01-05 06:45:00,28.4,26.4,30.38,SSE,147,0.0,0.0,92,0.00,,,0.00,WeatherCatV1.10B1784,2013-01-05 12:45:00,
2013-01-05 06:50:00,28.6,26.6,30.38,SSE,147,0.0,0.0,92,0.00,,,0.00,WeatherCatV1.10B1784,2013-01-05 12:50:00,
2013-01-05 06:55:00,28.7,26.7,30.38,SSE,147,0.0,0.0,92,0.00,,,0.00,WeatherCatV1.10B1784,2013-01-05 12:55:00,
2013-01-05 07:00:00,28.8,26.5,30.38,SSE,147,0.0,0.0,91,0.00,,,0.00,WeatherCatV1.10B1784,2013-01-05 13:00:00,
2013-01-05 07:05:00,28.8,26.5,30.38,SSE,147,0.0,0.0,91,0.00,,,0.00,WeatherCatV1.10B1784,2013-01-05 13:05:00,
2013-01-05 07:10:00,29.0,26.7,30.38,SSE,147,0.0,0.0,91,0.00,,,0.00,WeatherCatV1.10B1784,2013-01-05 13:10:00,
2013-01-05 07:15:00,29.1,26.8,30.38,SSE,147,0.0,0.0,91,0.00,,,0.00,WeatherCatV1.10B1784,2013-01-05 13:15:00,
2013-01-05 07:20:00,29.2,26.9,30.38,SSE,147,1.0,2.0,91,0.00,,,0.00,WeatherCatV1.10B1784,2013-01-05 13:20:00,
2013-01-05 07:25:00,29.3,26.7,30.37,SSE,147,0.0,0.0,90,0.00,,,0.00,WeatherCatV1.10B1784,2013-01-05 13:25:00,
2013-01-05 07:30:00,29.5,26.9,30.38,SSE,147,0.0,1.0,90,0.00,,,0.00,WeatherCatV1.10B1784,2013-01-05 13:30:00,
2013-01-05 07:35:00,29.7,26.9,30.38,SSE,147,0.0,1.0,89,0.00,,,0.00,WeatherCatV1.10B1784,2013-01-05 13:35:00,
2013-01-05 07:40:00,29.9,27.1,30.38,SSE,147,0.0,0.0,89,0.00,,,0.00,WeatherCatV1.10B1784,2013-01-05 13:40:00,
2013-01-05 07:45:00,30.1,27.0,30.38,SSE,147,0.0,2.0,88,0.00,,,0.00,WeatherCatV1.10B1784,2013-01-05 13:45:00,
2013-01-05 07:50:00,30.3,26.9,30.38,SSE,153,0.0,3.0,87,0.00,,,0.00,WeatherCatV1.10B1784,2013-01-05 13:50:00,
2013-01-05 07:55:00,30.5,27.1,30.38,SSE,157,0.0,2.0,87,0.00,,,0.00,WeatherCatV1.10B1784,2013-01-05 13:55:00,
2013-01-05 08:00:00,30.7,27.0,30.38,SSW,192,0.0,3.0,86,0.00,,,0.00,WeatherCatV1.10B1784,2013-01-05 14:00:00,
2013-01-05 08:05:00,31.0,27.3,30.38,South,169,2.0,3.0,86,0.00,,,0.00,WeatherCatV1.10B1784,2013-01-05 14:05:00,
2013-01-05 08:10:00,31.2,27.2,30.38,South,170,0.0,4.0,85,0.00,,,0.00,WeatherCatV1.10B1784,2013-01-05 14:10:00,
2013-01-05 08:15:00,31.3,27.3,30.38,South,169,1.0,3.0,85,0.00,,,0.00,WeatherCatV1.10B1784,2013-01-05 14:15:00,
2013-01-05 08:20:00,31.5,27.5,30.38,South,169,1.0,2.0,85,0.00,,,0.00,WeatherCatV1.10B1784,2013-01-05 14:20:00,
2013-01-05 08:25:00,31.6,27.3,30.37,South,169,2.0,2.0,84,0.00,,,0.00,WeatherCatV1.10B1784,2013-01-05 14:25:00,
2013-01-05 08:30:00,31.9,27.6,30.38,South,169,0.0,1.0,84,0.00,,,0.00,WeatherCatV1.10B1784,2013-01-05 14:30:00,
2013-01-05 08:35:00,32.0,27.7,30.37,SSE,161,0.0,3.0,84,0.00,,,0.00,WeatherCatV1.10B1784,2013-01-05 14:35:00,
2013-01-05 08:40:00,32.1,28.1,30.38,SSE,161,0.0,0.0,85,0.00,,,0.00,WeatherCatV1.10B1784,2013-01-05 14:40:00,
2013-01-05 08:45:00,32.3,28.3,30.38,SSE,165,0.0,2.0,85,0.00,,,0.00,WeatherCatV1.10B1784,2013-01-05 14:45:00,
2013-01-05 08:50:00,32.5,28.5,30.38,SSW,194,1.0,3.0,85,0.00,,,0.00,WeatherCatV1.10B1784,2013-01-05 14:50:00,
2013-01-05 08:55:00,32.9,28.6,30.37,South,173,4.0,4.0,84,0.00,,,0.00,WeatherCatV1.10B1784,2013-01-05 14:55:00,
2013-01-05 09:00:00,33.3,29.0,30.37,South,172,0.0,4.0,84,0.00,,,0.00,WeatherCatV1.10B1784,2013-01-05 15:00:00,
2013-01-05 09:05:00,33.9,29.6,30.37,SSE,157,2.0,3.0,84,0.00,,,0.00,WeatherCatV1.10B1784,2013-01-05 15:05:00,
2013-01-05 09:10:00,34.5,29.6,30.37,SSW,200,2.0,4.0,82,0.00,,,0.00,WeatherCatV1.10B1784,2013-01-05 15:10:00,
2013-01-05 09:15:00,35.0,29.5,30.38,South,191,1.0,7.0,80,0.00,,,0.00,WeatherCatV1.10B1784,2013-01-05 15:15:00,
2013-01-05 09:20:00,35.3,29.8,30.37,SSW,203,0.0,2.0,80,0.00,,,0.00,WeatherCatV1.10B1784,2013-01-05 15:20:00,
2013-01-05 09:25:00,35.5,29.6,30.37,WSW,237,3.0,4.0,79,0.00,,,0.00,WeatherCatV1.10B1784,2013-01-05 15:25:00,
2013-01-05 09:30:00,35.5,29.3,30.37,SW,215,1.0,3.0,78,0.00,,,0.00,WeatherCatV1.10B1784,2013-01-05 15:30:00,
2013-01-05 09:35:00,35.5,29.3,30.37,SSE,161,0.0,2.0,78,0.00,,,0.00,WeatherCatV1.10B1784,2013-01-05 15:35:00,
2013-01-05 09:40:00,35.5,29.3,30.37,SW,230,1.0,4.0,78,0.00,,,0.00,WeatherCatV1.10B1784,2013-01-05 15:40:00,
2013-01-05 09:45:00,35.5,29.6,30.37,South,186,2.0,4.0,79,0.00,,,0.00,WeatherCatV1.10B1784,2013-01-05 15:45:00,
2013-01-05 09:50:00,35.5,29.3,30.37,South,186,0.0,3.0,78,0.00,,,0.00,WeatherCatV1.10B1784,2013-01-05 15:50:00,
2013-01-05 09:55:00,35.6,29.4,30.37,SSW,194,0.0,2.0,78,0.00,,,0.00,WeatherCatV1.10B1784,2013-01-05 15:55:00,
2013-01-05 10:00:00,35.6,29.4,30.37,South,175,3.0,3.0,78,0.00,,,0.00,WeatherCatV1.10B1784,2013-01-05 16:00:00,
2013-01-05 10:05:00,35.7,29.2,30.37,South,173,3.0,3.0,77,0.00,,,0.00,WeatherCatV1.10B1784,2013-01-05 16:05:00,
2013-01-05 10:10:00,35.7,29.2,30.37,South,187,1.0,3.0,77,0.00,,,0.00,WeatherCatV1.10B1784,2013-01-05 16:10:00,
2013-01-05 10:15:00,35.7,29.5,30.36,SSW,212,4.0,4.0,78,0.00,,,0.00,WeatherCatV1.10B1784,2013-01-05 16:15:00,
2013-01-05 10:20:00,35.8,29.3,30.36,South,174,2.0,3.0,77,0.00,,,0.00,WeatherCatV1.10B1784,2013-01-05 16:20:00,
2013-01-05 10:25:00,35.9,29.4,30.36,SSW,196,3.0,5.0,77,0.00,,,0.00,WeatherCatV1.10B1784,2013-01-05 16:25:00,
2013-01-05 10:30:00,36.1,29.9,30.35,South,188,4.0,4.0,78,0.00,,,0.00,WeatherCatV1.10B1784,2013-01-05 16:30:00,
2013-01-05 10:35:00,36.2,29.7,30.35,SW,223,1.0,2.0,77,0.00,,,0.00,WeatherCatV1.10B1784,2013-01-05 16:35:00,
2013-01-05 10:40:00,36.4,29.6,30.35,SSW,210,1.0,4.0,76,0.00,,,0.00,WeatherCatV1.10B1784,2013-01-05 16:40:00,
2013-01-05 10:45:00,36.5,29.7,30.35,WSW,239,2.0,5.0,76,0.00,,,0.00,WeatherCatV1.10B1784,2013-01-05 16:45:00,
2013-01-05 10:50:00,36.6,29.8,30.35,WSW,243,1.0,3.0,76,0.00,,,0.00,WeatherCatV1.10B1784,2013-01-05 16:50:00,
2013-01-05 10:55:00,36.8,29.6,30.35,WSW,242,3.0,5.0,75,0.00,,,0.00,WeatherCatV1.10B1784,2013-01-05 16:55:00,
2013-01-05 11:00:00,36.8,29.6,30.35,SSW,213,1.0,3.0,75,0.00,,,0.00,WeatherCatV1.10B1784,2013-01-05 17:00:00,
2013-01-05 11:05:00,36.9,29.7,30.34,South,191,1.0,6.0,75,0.00,,,0.00,WeatherCatV1.10B1784,2013-01-05 17:05:00,
2013-01-05 11:10:00,37.0,29.8,30.34,SW,214,4.0,6.0,75,0.00,,,0.00,WeatherCatV1.10B1784,2013-01-05 17:10:00,
2013-01-05 11:15:00,37.1,29.9,30.34,South,185,0.0,5.0,75,0.00,,,0.00,WeatherCatV1.10B1784,2013-01-05 17:15:00,
2013-01-05 11:20:00,37.2,29.7,30.34,SSW,198,0.0,7.0,74,0.00,,,0.00,WeatherCatV1.10B1784,2013-01-05 17:20:00,
2013-01-05 11:25:00,37.3,29.8,30.33,SW,227,3.0,6.0,74,0.00,,,0.00,WeatherCatV1.10B1784,2013-01-05 17:25:00,
2013-01-05 11:30:00,37.4,29.9,30.33,West,267,4.0,5.0,74,0.00,,,0.00,WeatherCatV1.10B1784,2013-01-05 17:30:00,
2013-01-05 11:35:00,37.5,30.0,30.33,SSW,211,4.0,4.0,74,0.00,,,0.00,WeatherCatV1.10B1784,2013-01-05 17:35:00,
2013-01-05 11:40:00,37.6,30.1,30.32,SSE,147,3.0,5.0,74,0.00,,,0.00,WeatherCatV1.10B1784,2013-01-05 17:40:00,
2013-01-05 11:45:00,37.7,30.2,30.31,South,176,5.0,5.0,74,0.00,,,0.00,WeatherCatV1.10B1784,2013-01-05 17:45:00,
2013-01-05 11:50:00,37.8,30.3,30.31,SSW,192,2.0,8.0,74,0.00,,,0.00,WeatherCatV1.10B1784,2013-01-05 17:50:00,
2013-01-05 11:55:00,38.1,30.6,30.30,SW,224,4.0,4.0,74,0.00,,,0.00,WeatherCatV1.10B1784,2013-01-05 17:55:00,
2013-01-05 12:00:00,38.4,30.2,30.30,SW,236,4.0,8.0,72,0.00,,,0.00,WeatherCatV1.10B1784,2013-01-05 18:00:00,
2013-01-05 12:05:00,38.6,30.4,30.30,SSE,159,4.0,6.0,72,0.00,,,0.00,WeatherCatV1.10B1784,2013-01-05 18:05:00,
2013-01-05 12:10:00,38.7,30.5,30.29,SSW,203,0.0,1.0,72,0.00,,,0.00,WeatherCatV1.10B1784,2013-01-05 18:10:00,
2013-01-05 12:15:00,38.9,30.7,30.29,SSW,211,1.0,4.0,72,0.00,,,0.00,WeatherCatV1.10B1784,2013-01-05 18:15:00,
2013-01-05 12:20:00,39.1,30.5,30.29,SW,223,2.0,7.0,71,0.00,,,0.00,WeatherCatV1.10B1784,2013-01-05 18:20:00,
2013-01-05 12:25:00,39.3,30.7,30.28,SW,217,5.0,7.0,71,0.00,,,0.00,WeatherCatV1.10B1784,2013-01-05 18:25:00,
2013-01-05 12:30:00,39.3,30.7,30.28,SSE,165,6.0,7.0,71,0.00,,,0.00,WeatherCatV1.10B1784,2013-01-05 18:30:00,
2013-01-05 12:35:00,39.4,30.4,30.27,SSW,200,4.0,7.0,70,0.00,,,0.00,WeatherCatV1.10B1784,2013-01-05 18:35:00,
2013-01-05 12:40:00,39.5,30.5,30.27,SW,225,3.0,6.0,70,0.00,,,0.00,WeatherCatV1.10B1784,2013-01-05 18:40:00,
2013-01-05 12:45:00,39.9,30.9,30.26,SSW,194,2.0,3.0,70,0.00,,,0.00,WeatherCatV1.10B1784,2013-01-05 18:45:00,
2013-01-05 12:50:00,40.3,31.0,30.26,WSW,240,4.0,8.0,69,0.00,,,0.00,WeatherCatV1.10B1784,2013-01-05 18:50:00,
2013-01-05 12:55:00,40.5,30.8,30.26,South,187,5.0,6.0,68,0.00,,,0.00,WeatherCatV1.10B1784,2013-01-05 18:55:00,
2013-01-05 13:00:00,40.6,31.2,30.26,SSW,198,3.0,5.0,69,0.00,,,0.00,WeatherCatV1.10B1784,2013-01-05 19:00:00,
2013-01-05 13:05:00,40.9,31.5,30.26,SSW,201,3.0,8.0,69,0.00,,,0.00,WeatherCatV1.10B1784,2013-01-05 19:05:00,
2013-01-05 13:10:00,41.1,31.4,30.25,SW,217,5.0,5.0,68,0.00,,,0.00,WeatherCatV1.10B1784,2013-01-05 19:10:00,
2013-01-05 13:15:00,41.3,31.5,30.25,East,101,2.0,4.0,68,0.00,,,0.00,WeatherCatV1.10B1784,2013-01-05 19:15:00,
2013-01-05 13:20:00,41.5,31.7,30.25,SW,223,5.0,5.0,68,0.00,,,0.00,WeatherCatV1.10B1784,2013-01-05 19:20:00,
2013-01-05 13:25:00,41.5,31.7,30.25,SW,221,4.0,6.0,68,0.00,,,0.00,WeatherCatV1.10B1784,2013-01-05 19:25:00,
2013-01-05 13:30:00,41.5,31.4,30.25,SW,220,3.0,8.0,67,0.00,,,0.00,WeatherCatV1.10B1784,2013-01-05 19:30:00,
2013-01-05 13:35:00,41.4,31.3,30.25,SW,214,4.0,8.0,67,0.00,,,0.00,WeatherCatV1.10B1784,2013-01-05 19:35:00,
2013-01-05 13:40:00,41.4,31.6,30.25,SSW,192,2.0,5.0,68,0.00,,,0.00,WeatherCatV1.10B1784,2013-01-05 19:40:00,
2013-01-05 13:45:00,41.4,31.6,30.24,SW,218,2.0,6.0,68,0.00,,,0.00,WeatherCatV1.10B1784,2013-01-05 19:45:00,
2013-01-05 13:50:00,41.4,31.6,30.24,SW,223,3.0,6.0,68,0.00,,,0.00,WeatherCatV1.10B1784,2013-01-05 19:50:00,
2013-01-05 13:55:00,41.4,31.6,30.24,South,189,3.0,7.0,68,0.00,,,0.00,WeatherCatV1.10B1784,2013-01-05 19:55:00,
2013-01-05 14:00:00,41.5,32.1,30.24,South,190,2.0,5.0,69,0.00,,,0.00,WeatherCatV1.10B1784,2013-01-05 20:00:00,
2013-01-05 14:05:00,41.6,32.2,30.24,South,173,4.0,4.0,69,0.00,,,0.00,WeatherCatV1.10B1784,2013-01-05 20:05:00,
2013-01-05 14:10:00,41.7,32.3,30.24,WSW,250,5.0,8.0,69,0.00,,,0.00,WeatherCatV1.10B1784,2013-01-05 20:10:00,
2013-01-05 14:15:00,41.6,31.8,30.24,SW,221,4.0,6.0,68,0.00,,,0.00,WeatherCatV1.10B1784,2013-01-05 20:15:00,
2013-01-05 14:20:00,41.6,32.2,30.24,SW,220,5.0,9.0,69,0.00,,,0.00,WeatherCatV1.10B1784,2013-01-05 20:20:00,
2013-01-05 14:25:00,41.5,32.1,30.24,SSW,209,7.0,12.0,69,0.00,,,0.00,WeatherCatV1.10B1784,2013-01-05 20:25:00,
2013-01-05 14:30:00,41.4,32.4,30.24,SW,229,12.0,12.0,70,0.00,,,0.00,WeatherCatV1.10B1784,2013-01-05 20:30:00,
2013-01-05 14:35:00,41.3,32.3,30.24,WSW,257,2.0,8.0,70,0.00,,,0.00,WeatherCatV1.10B1784,2013-01-05 20:35:00,
2013-01-05 14:40:00,41.2,32.5,30.24,SW,221,2.0,8.0,71,0.00,,,0.00,WeatherCatV1.10B1784,2013-01-05 20:40:00,
2013-01-05 14:45:00,41.3,32.3,30.23,SW,219,8.0,8.0,70,0.00,,,0.00,WeatherCatV1.10B1784,2013-01-05 20:45:00,
2013-01-05 14:50:00,41.3,32.3,30.24,WSW,256,7.0,8.0,70,0.00,,,0.00,WeatherCatV1.10B1784,2013-01-05 20:50:00,
2013-01-05 14:55:00,41.3,32.6,30.24,WSW,246,1.0,5.0,71,0.00,,,0.00,WeatherCatV1.10B1784,2013-01-05 20:55:00,
2013-01-05 15:00:00,41.2,32.5,30.24,SW,226,3.0,7.0,71,0.00,,,0.00,WeatherCatV1.10B1784,2013-01-05 21:00:00,
2013-01-05 15:05:00,41.2,32.5,30.24,SW,221,5.0,8.0,71,0.00,,,0.00,WeatherCatV1.10B1784,2013-01-05 21:05:00,
2013-01-05 15:10:00,41.2,32.5,30.24,WSW,255,2.0,4.0,71,0.00,,,0.00,WeatherCatV1.10B1784,2013-01-05 21:10:00,
2013-01-05 15:15:00,41.1,32.4,30.24,SW,227,1.0,5.0,71,0.00,,,0.00,WeatherCatV1.10B1784,2013-01-05 21:15:00,
2013-01-05 15:20:00,41.1,32.4,30.25,SW,224,4.0,7.0,71,0.00,,,0.00,WeatherCatV1.10B1784,2013-01-05 21:20:00,
2013-01-05 15:25:00,41.1,32.8,30.25,SSW,209,2.0,3.0,72,0.00,,,0.00,WeatherCatV1.10B1784,2013-01-05 21:25:00,
2013-01-05 15:30:00,41.1,32.8,30.24,SSW,209,6.0,7.0,72,0.00,,,0.00,WeatherCatV1.10B1784,2013-01-05 21:30:00,
2013-01-05 15:35:00,41.1,32.8,30.25,SW,221,2.0,6.0,72,0.00,,,0.00,WeatherCatV1.10B1784,2013-01-05 21:35:00,
2013-01-05 15:40:00,41.1,32.8,30.24,South,182,3.0,7.0,72,0.00,,,0.00,WeatherCatV1.10B1784,2013-01-05 21:40:00,
2013-01-05 15:45:00,41.1,33.1,30.25,SW,216,5.0,10.0,73,0.00,,,0.00,WeatherCatV1.10B1784,2013-01-05 21:45:00,
2013-01-05 15:50:00,41.1,33.1,30.25,SW,225,1.0,6.0,73,0.00,,,0.00,WeatherCatV1.10B1784,2013-01-05 21:50:00,
2013-01-05 15:55:00,41.1,33.1,30.24,SW,229,4.0,9.0,73,0.00,,,0.00,WeatherCatV1.10B1784,2013-01-05 21:55:00,
2013-01-05 16:00:00,41.2,33.2,30.24,WSW,237,2.0,8.0,73,0.00,,,0.00,WeatherCatV1.10B1784,2013-01-05 22:00:00,
2013-01-05 16:05:00,41.2,33.6,30.24,SSW,209,4.0,5.0,74,0.00,,,0.00,WeatherCatV1.10B1784,2013-01-05 22:05:00,
2013-01-05 16:10:00,41.2,33.6,30.24,SSW,205,0.0,5.0,74,0.00,,,0.00,WeatherCatV1.10B1784,2013-01-05 22:10:00,
2013-01-05 16:15:00,41.2,33.6,30.24,SSW,197,3.0,7.0,74,0.00,,,0.00,WeatherCatV1.10B1784,2013-01-05 22:15:00,
2013-01-05 16:20:00,41.2,33.6,30.24,SW,225,6.0,6.0,74,0.00,,,0.00,WeatherCatV1.10B1784,2013-01-05 22:20:00,
2013-01-05 16:25:00,41.1,33.5,30.24,SW,228,2.0,8.0,74,0.00,,,0.00,WeatherCatV1.10B1784,2013-01-05 22:25:00,
2013-01-05 16:30:00,41.1,33.5,30.24,South,186,6.0,9.0,74,0.00,,,0.00,WeatherCatV1.10B1784,2013-01-05 22:30:00,
2013-01-05 16:35:00,41.0,33.4,30.23,SW,229,5.0,9.0,74,0.00,,,0.00,WeatherCatV1.10B1784,2013-01-05 22:35:00,
2013-01-05 16:40:00,41.0,33.4,30.23,SW,227,2.0,6.0,74,0.00,,,0.00,WeatherCatV1.10B1784,2013-01-05 22:40:00,
2013-01-05 16:45:00,40.9,33.3,30.24,SSW,196,3.0,4.0,74,0.00,,,0.00,WeatherCatV1.10B1784,2013-01-05 22:45:00,
2013-01-05 16:50:00,40.8,33.2,30.24,WSW,246,2.0,5.0,74,0.00,,,0.00,WeatherCatV1.10B1784,2013-01-05 22:50:00,
2013-01-05 16:55:00,40.8,33.2,30.24,SW,235,2.0,4.0,74,0.00,,,0.00,WeatherCatV1.10B1784,2013-01-05 22:55:00,
2013-01-05 17:00:00,40.7,33.1,30.25,WSW,250,1.0,6.0,74,0.00,,,0.00,WeatherCatV1.10B1784,2013-01-05 23:00:00,
2013-01-05 17:05:00,40.7,33.1,30.25,West,259,3.0,6.0,74,0.00,,,0.00,WeatherCatV1.10B1784,2013-01-05 23:05:00,
2013-01-05 17:10:00,40.6,33.3,30.24,SW,222,0.0,2.0,75,0.00,,,0.00,WeatherCatV1.10B1784,2013-01-05 23:10:00,
2013-01-05 17:15:00,40.6,33.3,30.25,South,171,4.0,4.0,75,0.00,,,0.00,WeatherCatV1.10B1784,2013-01-05 23:15:00,
2013-01-05 17:20:00,40.5,33.2,30.25,SW,228,1.0,6.0,75,0.00,,,0.00,WeatherCatV1.10B1784,2013-01-05 23:20:00,
2013-01-05 17:25:00,40.4,33.1,30.25,WSW,256,1.0,1.0,75,0.00,,,0.00,WeatherCatV1.10B1784,2013-01-05 23:25:00,
2013-01-05 17:30:00,40.3,33.0,30.26,SSW,211,0.0,3.0,75,0.00,,,0.00,WeatherCatV1.10B1784,2013-01-05 23:30:00,
2013-01-05 17:35:00,40.3,33.0,30.26,SW,231,0.0,4.0,75,0.00,,,0.00,WeatherCatV1.10B1784,2013-01-05 23:35:00,
2013-01-05 17:40:00,40.2,33.2,30.27,WSW,243,4.0,5.0,76,0.00,,,0.00,WeatherCatV1.10B1784,2013-01-05 23:40:00,
2013-01-05 17:45:00,40.2,33.2,30.27,South,186,2.0,4.0,76,0.00,,,0.00,WeatherCatV1.10B1784,2013-01-05 23:45:00,
2013-01-05 17:50:00,40.1,33.2,30.27,SW,219,2.0,6.0,76,0.00,,,0.00,WeatherCatV1.10B1784,2013-01-05 23:50:00,
2013-01-05 17:55:00,40.1,33.2,30.27,SW,215,2.0,2.0,76,0.00,,,0.00,WeatherCatV1.10B1784,2013-01-05 23:55:00,
2013-01-05 18:00:00,40.1,33.2,30.27,WSW,243,1.0,4.0,76,0.00,,,0.00,WeatherCatV1.10B1784,2013-01-06 00:00:00,
2013-01-05 18:05:00,40.0,33.1,30.26,SW,217,2.0,2.0,76,0.00,,,0.00,WeatherCatV1.10B1784,2013-01-06 00:05:00,
2013-01-05 18:10:00,40.0,33.1,30.27,SW,229,0.0,3.0,76,0.00,,,0.00,WeatherCatV1.10B1784,2013-01-06 00:10:00,
2013-01-05 18:15:00,40.0,33.4,30.27,SW,223,1.0,3.0,77,0.00,,,0.00,WeatherCatV1.10B1784,2013-01-06 00:15:00,
2013-01-05 18:20:00,39.9,33.3,30.27,WSW,242,1.0,1.0,77,0.00,,,0.00,WeatherCatV1.10B1784,2013-01-06 00:20:00,
2013-01-05 18:25:00,39.8,33.2,30.27,SW,232,1.0,5.0,77,0.00,,,0.00,WeatherCatV1.10B1784,2013-01-06 00:25:00,
2013-01-05 18:30:00,39.8,33.2,30.27,SW,229,3.0,4.0,77,0.00,,,0.00,WeatherCatV1.10B1784,2013-01-06 00:30:00,
2013-01-05 18:35:00,39.7,33.1,30.27,WSW,246,0.0,3.0,77,0.00,,,0.00,WeatherCatV1.10B1784,2013-01-06 00:35:00,
2013-01-05 18:40:00,39.7,33.1,30.28,SW,215,2.0,3.0,77,0.00,,,0.00,WeatherCatV1.10B1784,2013-01-06 00:40:00,
2013-01-05 18:45:00,39.7,33.1,30.28,WSW,240,0.0,4.0,77,0.00,,,0.00,WeatherCatV1.10B1784,2013-01-06 00:45:00,
2013-01-05 18:50:00,39.6,33.0,30.28,SW,215,0.0,3.0,77,0.00,,,0.00,WeatherCatV1.10B1784,2013-01-06 00:50:00,
2013-01-05 18:55:00,39.5,33.2,30.28,SSW,206,2.0,2.0,78,0.00,,,0.00,WeatherCatV1.10B1784,2013-01-06 00:55:00,
2013-01-05 19:00:00,39.4,33.1,30.28,SW,221,0.0,2.0,78,0.00,,,0.00,WeatherCatV1.10B1784,2013-01-06 01:00:00,
2013-01-05 19:05:00,39.4,33.1,30.28,WSW,247,1.0,1.0,78,0.00,,,0.00,WeatherCatV1.10B1784,2013-01-06 01:05:00,
2013-01-05 19:10:00,39.3,33.0,30.27,WSW,248,0.0,0.0,78,0.00,,,0.00,WeatherCatV1.10B1784,2013-01-06 01:10:00,
2013-01-05 19:15:00,39.2,32.9,30.27,SSW,209,0.0,2.0,78,0.00,,,0.00,WeatherCatV1.10B1784,2013-01-06 01:15:00,
2013-01-05 19:20:00,39.0,33.0,30.28,WSW,250,1.0,3.0,79,0.00,,,0.00,WeatherCatV1.10B1784,2013-01-06 01:20:00,
2013-01-05 19:25:00,38.9,33.0,30.28,SW,225,2.0,3.0,79,0.00,,,0.00,WeatherCatV1.10B1784,2013-01-06 01:25:00,
2013-01-05 19:31:00,38.8,32.9,30.28,SW,224,0.0,3.0,79,0.00,,,0.00,WeatherCatV1.10B1784,2013-01-06 01:31:00,
2013-01-05 19:36:00,38.7,33.1,30.28,SW,216,0.0,4.0,80,0.00,,,0.00,WeatherCatV1.10B1784,2013-01-06 01:36:00,
2013-01-05 19:41:00,38.6,33.0,30.28,SSW,207,1.0,3.0,80,0.00,,,0.00,WeatherCatV1.10B1784,2013-01-06 01:41:00,
2013-01-05 19:46:00,38.5,32.9,30.27,SSW,207,0.0,2.0,80,0.00,,,0.00,WeatherCatV1.10B1784,2013-01-06 01:46:00,
2013-01-05 19:51:00,38.4,32.8,30.27,SW,230,0.0,2.0,80,0.00,,,0.00,WeatherCatV1.10B1784,2013-01-06 01:51:00,
2013-01-05 19:56:00,38.3,32.7,30.27,SW,225,0.0,2.0,80,0.00,,,0.00,WeatherCatV1.10B1784,2013-01-06 01:56:00,
2013-01-05 20:01:00,38.1,32.5,30.27,WSW,238,0.0,2.0,80,0.00,,,0.00,WeatherCatV1.10B1784,2013-01-06 02:01:00,
2013-01-05 20:06:00,38.0,32.4,30.27,SW,228,0.0,0.0,80,0.00,,,0.00,WeatherCatV1.10B1784,2013-01-06 02:06:00,
2013-01-05 20:11:00,37.8,32.2,30.27,WSW,238,0.0,2.0,80,0.00,,,0.00,WeatherCatV1.10B1784,2013-01-06 02:11:00,
2013-01-05 20:16:00,37.5,32.2,30.27,SW,235,0.0,1.0,81,0.00,,,0.00,WeatherCatV1.10B1784,2013-01-06 02:16:00,
2013-01-05 20:21:00,37.2,31.6,30.26,SW,232,2.0,2.0,80,0.00,,,0.00,WeatherCatV1.10B1784,2013-01-06 02:21:00,
2013-01-05 20:26:00,36.9,31.6,30.27,SW,232,1.0,2.0,81,0.00,,,0.00,WeatherCatV1.10B1784,2013-01-06 02:26:00,
2013-01-05 20:31:00,36.6,31.0,30.26,SW,227,0.0,1.0,80,0.00,,,0.00,WeatherCatV1.10B1784,2013-01-06 02:31:00,
2013-01-05 20:36:00,36.3,31.0,30.27,SW,215,2.0,2.0,81,0.00,,,0.00,WeatherCatV1.10B1784,2013-01-06 02:36:00,
2013-01-05 20:41:00,35.9,31.0,30.27,SW,215,0.0,2.0,82,0.00,,,0.00,WeatherCatV1.10B1784,2013-01-06 02:41:00,
2013-01-05 20:46:00,35.7,30.8,30.27,SW,215,0.0,1.0,82,0.00,,,0.00,WeatherCatV1.10B1784,2013-01-06 02:46:00,
2013-01-05 20:51:00,35.3,30.7,30.27,SW,216,0.0,0.0,83,0.00,,,0.00,WeatherCatV1.10B1784,2013-01-06 02:51:00,
2013-01-05 20:56:00,35.0,30.4,30.27,SW,216,0.0,0.0,83,0.00,,,0.00,WeatherCatV1.10B1784,2013-01-06 02:56:00,
2013-01-05 21:01:00,34.7,30.1,30.27,SW,216,0.0,1.0,83,0.00,,,0.00,WeatherCatV1.10B1784,2013-01-06 03:01:00,
2013-01-05 21:06:00,34.4,29.8,30.27,SW,216,0.0,0.0,83,0.00,,,0.00,WeatherCatV1.10B1784,2013-01-06 03:06:00,
2013-01-05 21:11:00,34.1,29.5,30.28,SW,216,0.0,0.0,83,0.00,,,0.00,WeatherCatV1.10B1784,2013-01-06 03:11:00,
2013-01-05 21:16:00,33.8,29.2,30.28,SW,216,0.0,1.0,83,0.00,,,0.00,WeatherCatV1.10B1784,2013-01-06 03:16:00,
2013-01-05 21:21:00,33.5,29.2,30.28,SW,216,0.0,0.0,84,0.00,,,0.00,WeatherCatV1.10B1784,2013-01-06 03:21:00,
2013-01-05 21:26:00,33.2,28.9,30.28,SW,214,0.0,1.0,84,0.00,,,0.00,WeatherCatV1.10B1784,2013-01-06 03:26:00,
2013-01-05 21:31:00,32.8,28.5,30.28,SW,214,0.0,0.0,84,0.00,,,0.00,WeatherCatV1.10B1784,2013-01-06 03:31:00,
2013-01-05 21:36:00,32.4,28.4,30.27,SW,214,0.0,0.0,85,0.00,,,0.00,WeatherCatV1.10B1784,2013-01-06 03:36:00,
2013-01-05 21:41:00,32.0,28.0,30.27,SW,214,0.0,0.0,85,0.00,,,0.00,WeatherCatV1.10B1784,2013-01-06 03:41:00,
2013-01-05 21:46:00,31.7,28.0,30.27,SW,214,0.0,0.0,86,0.00,,,0.00,WeatherCatV1.10B1784,2013-01-06 03:46:00,
2013-01-05 21:51:00,31.4,27.7,30.27,SW,214,0.0,1.0,86,0.00,,,0.00,WeatherCatV1.10B1784,2013-01-06 03:51:00,
2013-01-05 21:56:00,31.1,27.7,30.27,SW,214,0.0,0.0,87,0.00,,,0.00,WeatherCatV1.10B1784,2013-01-06 03:56:00,
2013-01-05 22:01:00,30.9,27.5,30.28,SW,214,0.0,0.0,87,0.00,,,0.00,WeatherCatV1.10B1784,2013-01-06 04:01:00,
2013-01-05 22:06:00,30.6,27.5,30.27,SW,214,0.0,0.0,88,0.00,,,0.00,WeatherCatV1.10B1784,2013-01-06 04:06:00,
2013-01-05 22:11:00,30.4,27.0,30.27,SW,214,0.0,0.0,87,0.00,,,0.00,WeatherCatV1.10B1784,2013-01-06 04:11:00,
2013-01-05 22:16:00,30.2,26.8,30.27,SW,215,0.0,0.0,87,0.00,,,0.00,WeatherCatV1.10B1784,2013-01-06 04:16:00,
2013-01-05 22:21:00,29.9,26.8,30.27,SW,215,0.0,1.0,88,0.00,,,0.00,WeatherCatV1.10B1784,2013-01-06 04:21:00,
2013-01-05 22:26:00,29.7,26.6,30.27,SSW,205,0.0,1.0,88,0.00,,,0.00,WeatherCatV1.10B1784,2013-01-06 04:26:00,
2013-01-05 22:31:00,29.5,26.7,30.27,WSW,252,0.0,2.0,89,0.00,,,0.00,WeatherCatV1.10B1784,2013-01-06 04:31:00,
2013-01-05 22:36:00,29.4,26.8,30.28,WSW,252,0.0,0.0,90,0.00,,,0.00,WeatherCatV1.10B1784,2013-01-06 04:36:00,
2013-01-05 22:41:00,29.3,26.7,30.27,WSW,252,0.0,0.0,90,0.00,,,0.00,WeatherCatV1.10B1784,2013-01-06 04:41:00,
2013-01-05 22:44:00,29.2,26.6,30.27,WSW,252,0.0,0.0,90,0.00,,,0.00,WeatherCatV1.10B1784,2013-01-06 04:44:00,
2013-01-05 22:45:00,29.2,26.9,30.27,WSW,252,0.0,0.0,91,0.00,,,0.00,WeatherCatV1.10B1784,2013-01-06 04:45:00,
2013-01-05 22:50:00,29.2,26.9,30.27,WSW,252,0.0,0.0,91,0.00,,,0.00,WeatherCatV1.10B1784,2013-01-06 04:50:00,
2013-01-05 22:55:00,29.2,26.9,30.27,WSW,252,0.0,0.0,91,0.00,,,0.00,WeatherCatV1.10B1784,2013-01-06 04:55:00,
2013-01-05 23:00:00,29.2,27.2,30.27,WSW,252,0.0,0.0,92,0.00,,,0.00,WeatherCatV1.10B1784,2013-01-06 05:00:00,
2013-01-05 23:01:00,29.1,27.1,30.27,WSW,252,0.0,0.0,92,0.00,,,0.00,WeatherCatV1.10B1784,2013-01-06 05:01:00,
2013-01-05 23:06:00,29.1,27.1,30.27,WSW,252,0.0,0.0,92,0.00,,,0.00,WeatherCatV1.10B1784,2013-01-06 05:06:00,
2013-01-05 23:11:00,29.0,27.0,30.27,WSW,252,0.0,0.0,92,0.00,,,0.00,WeatherCatV1.10B1784,2013-01-06 05:11:00,
2013-01-05 23:16:00,28.9,26.9,30.27,WSW,252,0.0,0.0,92,0.00,,,0.00,WeatherCatV1.10B1784,2013-01-06 05:16:00,
2013-01-05 23:21:00,28.8,26.8,30.27,WSW,250,0.0,2.0,92,0.00,,,0.00,WeatherCatV1.10B1784,2013-01-06 05:21:00,
2013-01-05 23:26:00,28.7,26.7,30.27,WSW,250,0.0,0.0,92,0.00,,,0.00,WeatherCatV1.10B1784,2013-01-06 05:26:00,
2013-01-05 23:31:00,28.7,26.7,30.27,WSW,244,1.0,2.0,92,0.00,,,0.00,WeatherCatV1.10B1784,2013-01-06 05:31:00,
2013-01-05 23:36:00,28.7,26.9,30.27,WSW,238,0.0,2.0,93,0.00,,,0.00,WeatherCatV1.10B1784,2013-01-06 05:36:00,
2013-01-05 23:41:00,28.7,26.9,30.27,SW,236,0.0,1.0,93,0.00,,,0.00,WeatherCatV1.10B1784,2013-01-06 05:41:00,
2013-01-05 23:46:00,28.8,27.3,30.27,SW,236,1.0,3.0,94,0.00,,,0.00,WeatherCatV1.10B1784,2013-01-06 05:46:00,
2013-01-05 23:51:00,28.8,27.3,30.27,SW,225,0.0,0.0,94,0.00,,,0.00,WeatherCatV1.10B1784,2013-01-06 05:51:00,
2013-01-05 23:56:00,28.9,27.4,30.26,SW,225,0.0,0.0,94,0.00,,,0.00,WeatherCatV1.10B1784,2013-01-06 05:56:00,